• Em Portugal
  • Lista de países
  • Para 7 dias
  • Temperatura da água
  • Mapas de satélite
  • Mapa do tempo
  • Widgets de tempo
  • user-avatar
    Iniciar Sessão

    Previsão horária em Baalbek

    Hoje, 19 Fevereiro, Segunda-feira

    Tempo Temperatura Precipitação Vento Pressão Humidade
    00:00 +5°C° 0 mm 2 m/s 657 mmHg 76%
    01:00 +5°C° 0 mm 2 m/s 657 mmHg 76%
    02:00 +4°C° 0 mm 2 m/s 657 mmHg 75%
    03:00 +4°C° 0 mm 2 m/s 657 mmHg 75%
    04:00 +4°C° 0 mm 2 m/s 657 mmHg 75%
    05:00 +4°C° 0 mm 2 m/s 657 mmHg 74%
    06:00 +5°C° 0 mm 2 m/s 658 mmHg 71%
    07:00 +6°C° 0 mm 2 m/s 658 mmHg 67%
    08:00 +7°C° 0 mm 2 m/s 659 mmHg 63%
    09:00 +8°C° 0 mm 2 m/s 659 mmHg 60%
    10:00 +9°C° 0 mm 2 m/s 660 mmHg 56%
    11:00 +12°C° 0 mm 2 m/s 660 mmHg 53%
    12:00 +11°C° 0 mm 3 m/s 660 mmHg 52%
    13:00 +12°C° 0 mm 3 m/s 660 mmHg 51%
    14:00 +12°C° 0 mm 3 m/s 660 mmHg 50%
    15:00 +11°C° 0 mm 3 m/s 660 mmHg 55%
    16:00 +12°C° 0 mm 2 m/s 659 mmHg 60%
    17:00 +10°C° 0 mm 2 m/s 659 mmHg 64%
    18:00 +9°C° 0 mm 2 m/s 659 mmHg 70%
    19:00 +9°C° 0 mm 1 m/s 659 mmHg 76%
    20:00 +8°C° 0 mm 1 m/s 659 mmHg 82%
    21:00 +8°C° 0 mm 1 m/s 659 mmHg 82%
    22:00 +8°C° 0 mm 1 m/s 659 mmHg 82%
    23:00 +8°C° 0 mm 1 m/s 659 mmHg 82%

    Amanhã, 20 Fevereiro, Terça-feira

    Tempo Temperatura Precipitação Vento Pressão Humidade
    00:00 +8°C° 0 mm 1 m/s 659 mmHg 82%
    01:00 +8°C° 0 mm 1 m/s 658 mmHg 82%
    02:00 +7°C° 0 mm 1 m/s 658 mmHg 83%
    03:00 +7°C° 0 mm 1 m/s 658 mmHg 81%
    04:00 +7°C° 0 mm 1 m/s 658 mmHg 80%
    05:00 +6°C° 0 mm 1 m/s 657 mmHg 78%
    06:00 +7°C° 0 mm 1 m/s 658 mmHg 71%
    07:00 +8°C° 0 mm 1 m/s 658 mmHg 64%
    08:00 +9°C° 0 mm 1 m/s 659 mmHg 56%
    09:00 +10°C° 0 mm 1 m/s 659 mmHg 49%
    10:00 +10°C° 0 mm 2 m/s 659 mmHg 43%
    11:00 +12°C° 0 mm 2 m/s 659 mmHg 36%
    12:00 +12°C° 0 mm 2 m/s 658 mmHg 38%
    13:00 +12°C° 0 mm 2 m/s 658 mmHg 39%
    14:00 +13°C° 0 mm 2 m/s 658 mmHg 41%
    15:00 +12°C° 0 mm 2 m/s 657 mmHg 44%
    16:00 +12°C° 0 mm 2 m/s 657 mmHg 48%
    17:00 +12°C° 0 mm 1 m/s 657 mmHg 52%
    18:00 +11°C° 0 mm 1 m/s 657 mmHg 54%
    19:00 +11°C° 0 mm 1 m/s 656 mmHg 56%
    20:00 +10°C° 0 mm 1 m/s 656 mmHg 58%
    21:00 +10°C° 0 mm 1 m/s 656 mmHg 59%
    22:00 +9°C° 0 mm 1 m/s 656 mmHg 60%
    23:00 +9°C° 0 mm 1 m/s 656 mmHg 61%

    Depois de amanhã, 21 Fevereiro, Quarta-feira

    Tempo Temperatura Precipitação Vento Pressão Humidade
    00:00 +8°C° 0 mm 1 m/s 655 mmHg 61%
    01:00 +8°C° 0 mm 1 m/s 655 mmHg 62%
    02:00 +7°C° 0 mm 1 m/s 655 mmHg 63%
    03:00 +7°C° 0 mm 1 m/s 655 mmHg 63%
    04:00 +7°C° 0 mm 1 m/s 654 mmHg 63%
    05:00 +7°C° 0 mm 1 m/s 654 mmHg 63%
    06:00 +8°C° 0 mm 1 m/s 655 mmHg 58%
    07:00 +9°C° 0 mm 1 m/s 655 mmHg 53%
    08:00 +10°C° 0 mm 1 m/s 656 mmHg 49%
    09:00 +11°C° 0 mm 1 m/s 656 mmHg 47%
    10:00 +12°C° 0 mm 1 m/s 656 mmHg 44%
    11:00 +13°C° 0 mm 1 m/s 657 mmHg 42%
    12:00 +13°C° 0,2 mm 1 m/s 656 mmHg 43%
    13:00 +13°C° 0,2 mm 1 m/s 656 mmHg 45%
    14:00 +13°C° 0,2 mm 1 m/s 655 mmHg 46%
    15:00 +12°C° 0,4 mm 1 m/s 655 mmHg 49%
    16:00 +12°C° 0,4 mm 1 m/s 655 mmHg 52%
    17:00 +11°C° 0,4 mm 1 m/s 655 mmHg 56%
    18:00 +11°C° 0,1 mm 1 m/s 655 mmHg 59%
    19:00 +10°C° 0,1 mm 1 m/s 655 mmHg 63%
    20:00 +10°C° 0,1 mm 1 m/s 656 mmHg 67%
    21:00 +9°C° 0 mm 1 m/s 656 mmHg 68%
    22:00 +9°C° 0 mm 1 m/s 656 mmHg 70%
    23:00 +9°C° 0 mm 1 m/s 656 mmHg 71%

    22 Fevereiro, Quinta-feira

    Tempo Temperatura Precipitação Vento Pressão Humidade
    00:00 +9°C° 0 mm 1 m/s 655 mmHg 73%
    01:00 +7°C° 0 mm 0 m/s 655 mmHg 75%
    02:00 +7°C° 0 mm 0 m/s 655 mmHg 76%
    03:00 +8°C° 0 mm 1 m/s 655 mmHg 76%
    04:00 +8°C° 0 mm 1 m/s 655 mmHg 77%
    05:00 +8°C° 0 mm 1 m/s 655 mmHg 77%
    06:00 +8°C° 0,1 mm 1 m/s 656 mmHg 75%
    07:00 +8°C° 0,1 mm 1 m/s 656 mmHg 74%
    08:00 +9°C° 0,1 mm 1 m/s 656 mmHg 72%
    09:00 +9°C° 0,1 mm 1 m/s 656 mmHg 67%
    10:00 +10°C° 0,1 mm 1 m/s 656 mmHg 62%
    11:00 +11°C° 0,1 mm 1 m/s 657 mmHg 57%
    12:00 +11°C° 0,1 mm 1 m/s 656 mmHg 55%
    13:00 +11°C° 0,1 mm 1 m/s 656 mmHg 54%
    14:00 +12°C° 0,1 mm 2 m/s 655 mmHg 53%
    15:00 +12°C° 0,1 mm 1 m/s 655 mmHg 55%
    16:00 +11°C° 0,1 mm 1 m/s 655 mmHg 57%
    17:00 +11°C° 0,1 mm 1 m/s 655 mmHg 59%
    18:00 +11°C° 0 mm 1 m/s 655 mmHg 62%
    19:00 +10°C° 0 mm 1 m/s 655 mmHg 66%
    20:00 +10°C° 0 mm 1 m/s 655 mmHg 69%
    21:00 +9°C° 0 mm 1 m/s 655 mmHg 70%
    22:00 +9°C° 0 mm 1 m/s 655 mmHg 70%
    23:00 +9°C° 0 mm 1 m/s 655 mmHg 71%

    23 Fevereiro, Sexta-feira

    Tempo Temperatura Precipitação Vento Pressão Humidade
    00:00 +8°C° 0 mm 1 m/s 655 mmHg 71%
    01:00 +8°C° 0 mm 1 m/s 654 mmHg 72%
    02:00 +8°C° 0 mm 1 m/s 654 mmHg 73%
    03:00 +7°C° 0 mm 1 m/s 654 mmHg 74%
    04:00 +7°C° 0 mm 1 m/s 654 mmHg 75%
    05:00 +7°C° 0 mm 1 m/s 654 mmHg 77%
    06:00 +8°C° 0 mm 1 m/s 654 mmHg 73%
    07:00 +9°C° 0 mm 1 m/s 655 mmHg 69%
    08:00 +9°C° 0 mm 1 m/s 655 mmHg 65%
    09:00 +10°C° 0 mm 1 m/s 655 mmHg 61%
    10:00 +11°C° 0 mm 1 m/s 656 mmHg 58%
    11:00 +12°C° 0 mm 2 m/s 656 mmHg 54%
    12:00 +12°C° 0,3 mm 2 m/s 655 mmHg 54%
    13:00 +12°C° 0,3 mm 2 m/s 655 mmHg 54%
    14:00 +11°C° 0,3 mm 3 m/s 655 mmHg 55%
    15:00 +11°C° 0,4 mm 3 m/s 655 mmHg 58%
    16:00 +10°C° 0,4 mm 3 m/s 655 mmHg 62%
    17:00 +10°C° 0,4 mm 3 m/s 655 mmHg 66%
    18:00 +9°C° 0,2 mm 2 m/s 656 mmHg 70%
    19:00 +8°C° 0,2 mm 2 m/s 656 mmHg 74%
    20:00 +8°C° 0,2 mm 2 m/s 656 mmHg 78%
    21:00 +8°C° 0,1 mm 2 m/s 656 mmHg 79%
    22:00 +7°C° 0,1 mm 2 m/s 656 mmHg 80%
    23:00 +8°C° 0,1 mm 1 m/s 657 mmHg 81%

    24 Fevereiro, Sábado

    Tempo Temperatura Precipitação Vento Pressão Humidade
    00:00 +8°C° 0 mm 1 m/s 657 mmHg 82%
    01:00 +8°C° 0 mm 1 m/s 657 mmHg 83%
    02:00 +8°C° 0 mm 1 m/s 657 mmHg 83%
    03:00 +7°C° 0 mm 1 m/s 657 mmHg 84%
    04:00 +7°C° 0 mm 1 m/s 657 mmHg 84%
    05:00 +7°C° 0 mm 1 m/s 657 mmHg 84%
    06:00 +7°C° 0 mm 1 m/s 658 mmHg 81%
    07:00 +8°C° 0 mm 1 m/s 658 mmHg 78%
    08:00 +9°C° 0 mm 1 m/s 659 mmHg 74%
    09:00 +10°C° 0 mm 1 m/s 659 mmHg 69%
    10:00 +11°C° 0 mm 1 m/s 659 mmHg 63%
    11:00 +12°C° 0 mm 2 m/s 659 mmHg 57%
    12:00 +12°C° 0 mm 2 m/s 659 mmHg 55%
    13:00 +13°C° 0 mm 2 m/s 659 mmHg 53%
    14:00 +13°C° 0 mm 2 m/s 659 mmHg 51%
    15:00 +13°C° 0 mm 2 m/s 659 mmHg 54%
    16:00 +12°C° 0 mm 2 m/s 659 mmHg 57%
    17:00 +12°C° 0 mm 2 m/s 658 mmHg 60%
    18:00 +11°C° 0 mm 1 m/s 659 mmHg 65%
    19:00 +10°C° 0 mm 1 m/s 659 mmHg 69%
    20:00 +10°C° 0 mm 1 m/s 659 mmHg 74%
    21:00 +9°C° 0 mm 1 m/s 659 mmHg 75%
    22:00 +9°C° 0 mm 1 m/s 658 mmHg 76%
    23:00 +8°C° 0 mm 1 m/s 658 mmHg 77%
    Mostrar mais